datetime,flow
1922-01-01,24.0
1922-01-02,24.0
1922-01-03,24.0
1922-01-04,24.0
1922-01-05,24.0
1922-01-06,24.0
1922-01-07,24.0
1922-01-08,24.0
1922-01-09,24.0
1922-01-10,24.0
1922-01-11,24.0
1922-01-12,24.0
1922-01-13,24.0
1922-01-14,24.0
1922-01-15,24.0
1922-01-16,24.0
1922-01-17,24.0
1922-01-18,24.0
1922-01-19,24.0
1922-01-20,24.0
1922-01-21,24.0
1922-01-22,24.0
1922-01-23,24.0
1922-01-24,24.0
1922-01-25,24.0
1922-01-26,24.0
1922-01-27,24.0
1922-01-28,24.0
1922-01-29,24.0
1922-01-30,24.0
1922-01-31,24.0
1922-02-01,35.0
1922-02-02,35.0
1922-02-03,35.0
1922-02-04,35.0
1922-02-05,35.0
1922-02-06,35.0
1922-02-07,35.0
1922-02-08,35.0
1922-02-09,35.0
1922-02-10,35.0
1922-02-11,35.0
1922-02-12,35.0
1922-02-13,35.0
1922-02-14,35.0
1922-02-15,35.0
1922-02-16,35.0
1922-02-17,35.0
1922-02-18,35.0
1922-02-19,35.0
1922-02-20,35.0
1922-02-21,35.0
1922-02-22,35.0
1922-02-23,35.0
1922-02-24,35.0
1922-02-25,35.0
1922-02-26,35.0
1922-02-27,35.0
1922-02-28,35.0
1922-03-01,29.0
1922-03-02,29.0
1922-03-03,29.0
1922-03-04,29.0
1922-03-05,29.0
1922-03-06,29.0
1922-03-07,29.0
1922-03-08,29.0
1922-03-09,29.0
1922-03-10,29.0
1922-03-11,29.0
1922-03-12,29.0
1922-03-13,29.0
1922-03-14,29.0
1922-03-15,29.0
1922-03-16,29.0
1922-03-17,29.0
1922-03-18,29.0
1922-03-19,29.0
1922-03-20,29.0
1922-03-21,29.0
1922-03-22,29.0
1922-03-23,29.0
1922-03-24,29.0
1922-03-25,29.0
1922-03-26,29.0
1922-03-27,29.0
1922-03-28,29.0
1922-03-29,29.0
1922-03-30,29.0
1922-03-31,29.0
1922-04-01,8.0
1922-04-02,8.0
1922-04-03,8.0
1922-04-04,8.0
1922-04-05,8.0
1922-04-06,8.0
1922-04-07,8.0
1922-04-08,8.0
1922-04-09,8.0
1922-04-10,8.0
1922-04-11,8.0
1922-04-12,20.0
1922-04-13,75.0
1922-04-14,40.0
1922-04-15,50.0
1922-04-16,35.0
1922-04-17,30.0
1922-04-18,20.0
1922-04-19,20.0
1922-04-20,20.0
1922-04-21,15.0
1922-04-22,15.0
1922-04-23,15.0
1922-04-24,16.0
1922-04-25,23.0
1922-04-26,37.0
1922-04-27,28.0
1922-04-28,23.0
1922-04-29,26.0
1922-04-30,103.0
1922-05-01,16.0
1922-05-02,12.0
1922-05-03,7.0
1922-05-04,6.0
1922-05-05,7.0
1922-05-06,4.0
1922-05-07,3.0
1922-05-08,5.0
1922-05-09,4.0
1922-05-10,3.0
1922-05-11,130.0
1922-05-12,9.0
1922-05-13,9.0
1922-05-14,6.0
1922-05-15,2.0
1922-05-16,2.0
1922-05-17,2.0
1922-05-18,2.0
1922-05-19,6.0
1922-05-20,6.0
1922-05-21,6.0
1922-05-22,9.0
1922-05-23,7.0
1922-05-24,7.0
1922-05-25,6.0
1922-05-26,6.0
1922-05-27,6.0
1922-05-28,6.0
1922-05-29,7.0
1922-05-30,181.0
1922-05-31,71.0
1922-06-01,30.0
1922-06-02,25.0
1922-06-03,130.0
1922-06-04,71.0
1922-06-05,103.0
1922-06-06,61.0
1922-06-07,50.0
1922-06-08,40.0
1922-06-09,27.0
1922-06-10,23.0
1922-06-11,26.0
1922-06-12,30.0
1922-06-13,30.0
1922-06-14,40.0
1922-06-15,56.0
1922-06-16,47.0
1922-06-17,47.0
1922-06-18,43.0
1922-06-19,63.0
1922-06-20,39.0
1922-06-21,40.0
1922-06-22,28.0
1922-06-23,33.0
1922-06-24,36.0
1922-06-25,39.0
1922-06-26,39.0
1922-06-27,46.0
1922-06-28,42.0
1922-06-29,40.0
1922-06-30,40.0
1922-07-01,44.0
1922-07-02,177.0
1922-07-03,140.0
1922-07-04,61.0
1922-07-05,26.0
1922-07-06,23.0
1922-07-07,33.0
1922-07-08,16.0
1922-07-09,19.0
1922-07-10,14.0
1922-07-11,15.0
1922-07-12,29.0
1922-07-13,19.0
1922-07-14,16.0
1922-07-15,15.0
1922-07-16,12.0
1922-07-17,10.0
1922-07-18,13.0
1922-07-19,83.0
1922-07-20,60.0
1922-07-21,12.0
1922-07-22,7.0
1922-07-23,10.0
1922-07-24,34.0
1922-07-25,173.0
1922-07-26,233.0
1922-07-27,58.0
1922-07-28,30.0
1922-07-29,20.0
1922-07-30,1630.0
1922-07-31,750.0
1922-08-01,430.0
1922-08-02,700.0
1922-08-03,350.0
1922-08-04,136.0
1922-08-05,67.0
1922-08-06,39.0
1922-08-07,78.0
1922-08-08,32.0
1922-08-09,44.0
1922-08-10,65.0
1922-08-11,19.0
1922-08-12,15.0
1922-08-13,9.0
1922-08-14,7.0
1922-08-15,6.0
1922-08-16,5.0
1922-08-17,5.0
1922-08-18,5.0
1922-08-19,7.0
1922-08-20,6.0
1922-08-21,5.0
1922-08-22,6.0
1922-08-23,9.0
1922-08-24,10.0
1922-08-25,6.0
1922-08-26,6.0
1922-08-27,6.0
1922-08-28,6.0
1922-08-29,6.0
1922-08-30,6.0
1922-08-31,6.0
1922-09-01,6.0
1922-09-02,8.0
1922-09-03,7.0
1922-09-04,6.0
1922-09-05,7.0
1922-09-06,7.0
1922-09-07,7.0
1922-09-08,8.0
1922-09-09,7.0
1922-09-10,8.0
1922-09-11,7.0
1922-09-12,7.0
1922-09-13,6.0
1922-09-14,7.0
1922-09-15,9.0
1922-09-16,8.0
1922-09-17,8.0
1922-09-18,8.0
1922-09-19,7.0
1922-09-20,7.0
1922-09-21,7.0
1922-09-22,7.0
1922-09-23,6.0
1922-09-24,7.0
1922-09-25,7.0
1922-09-26,8.0
1922-09-27,9.0
1922-09-28,9.0
1922-09-29,8.0
1922-09-30,8.0
1922-10-01,8.0
1922-10-02,7.0
1922-10-03,8.0
1922-10-04,8.0
1922-10-05,8.0
1922-10-06,8.0
1922-10-07,7.0
1922-10-08,7.0
1922-10-09,7.0
1922-10-10,8.0
1922-10-11,9.0
1922-10-12,9.0
1922-10-13,9.0
1922-10-14,9.0
1922-10-15,8.0
1922-10-16,7.0
1922-10-17,8.0
1922-10-18,7.0
1922-10-19,7.0
1922-10-20,7.0
1922-10-21,8.0
1922-10-22,8.0
1922-10-23,7.0
1922-10-24,8.0
1922-10-25,8.0
1922-10-26,8.0
1922-10-27,9.0
1922-10-28,9.0
1922-10-29,9.0
1922-10-30,8.0
1922-10-31,9.0
1922-11-01,8.0
1922-11-02,10.0
1922-11-03,17.0
1922-11-04,12.0
1922-11-05,13.0
1922-11-06,12.0
1922-11-07,20.0
1922-11-08,23.0
1922-11-09,23.0
1922-11-10,19.0
1922-11-11,17.0
1922-11-12,17.0
1922-11-13,20.0
1922-11-14,20.0
1922-11-15,19.0
1922-11-16,25.0
1922-11-17,25.0
1922-11-18,26.0
1922-11-19,26.0
1922-11-20,23.0
1922-11-21,23.0
1922-11-22,23.0
1922-11-23,23.0
1922-11-24,28.0
1922-11-25,28.0
1922-11-26,29.0
1922-11-27,32.0
1922-11-28,27.0
1922-11-29,27.0
1922-11-30,25.0
1922-12-01,26.0
1922-12-02,27.0
1922-12-03,23.0
1922-12-04,23.0
1922-12-05,19.0
1922-12-06,25.0
1922-12-07,32.0
1922-12-08,26.0
1922-12-09,19.0
1922-12-10,15.0
1922-12-11,17.0
1922-12-12,22.0
1922-12-13,23.0
1922-12-14,22.0
1922-12-15,34.0
1922-12-16,36.0
1922-12-17,30.0
1922-12-18,32.0
1922-12-19,25.0
1922-12-20,23.0
1922-12-21,19.0
1922-12-22,21.0
1922-12-23,26.0
1922-12-24,39.0
1922-12-25,50.0
1922-12-26,47.0
1922-12-27,22.0
1922-12-28,25.0
1922-12-29,30.0
1922-12-30,32.0
1922-12-31,30.0
1923-01-01,37.0
1923-01-02,40.0
1923-01-03,30.0
1923-01-04,42.0
1923-01-05,47.0
1923-01-06,41.0
1923-01-07,38.0
1923-01-08,34.0
1923-01-09,34.0
1923-01-10,34.0
1923-01-11,33.0
1923-01-12,28.0
1923-01-13,34.0
1923-01-14,25.0
1923-01-15,20.0
1923-01-16,21.0
1923-01-17,25.0
1923-01-18,35.0
1923-01-19,38.0
1923-01-20,44.0
1923-01-21,34.0
1923-01-22,25.0
1923-01-23,32.0
1923-01-24,35.0
1923-01-25,37.0
1923-01-26,30.0
1923-01-27,28.0
1923-01-28,32.0
1923-01-29,18.0
1923-01-30,27.0
1923-01-31,42.0
1923-02-01,40.0
1923-02-02,20.0
1923-02-03,13.0
1923-02-04,22.0
1923-02-05,14.0
1923-02-06,10.0
1923-02-07,12.0
1923-02-08,7.0
1923-02-09,10.0
1923-02-10,14.0
1923-02-11,14.0
1923-02-12,14.0
1923-02-13,14.0
1923-02-14,18.0
1923-02-15,33.0
1923-02-16,17.0
1923-02-17,18.0
1923-02-18,20.0
1923-02-19,30.0
1923-02-20,38.0
1923-02-21,34.0
1923-02-22,41.0
1923-02-23,40.0
1923-02-24,38.0
1923-02-25,35.0
1923-02-26,33.0
1923-02-27,34.0
1923-02-28,37.0
1923-03-01,35.0
1923-03-02,37.0
1923-03-03,32.0
1923-03-04,23.0
1923-03-05,31.0
1923-03-06,26.0
1923-03-07,20.0
1923-03-08,20.0
1923-03-09,15.0
1923-03-10,15.0
1923-03-11,15.0
1923-03-12,15.0
1923-03-13,15.0
1923-03-14,15.0
1923-03-15,15.0
1923-03-16,10.0
1923-03-17,10.0
1923-03-18,10.0
1923-03-19,10.0
1923-03-20,10.0
1923-03-21,10.0
1923-03-22,10.0
1923-03-23,10.0
1923-03-24,9.0
1923-03-25,14.0
1923-03-26,20.0
1923-03-27,26.0
1923-03-28,6.0
1923-03-29,7.0
1923-03-30,6.0
1923-03-31,8.0
1923-04-01,9.0
1923-04-02,8.0
1923-04-03,8.0
1923-04-04,18.0
1923-04-05,8.0
1923-04-06,7.0
1923-04-07,5.0
1923-04-08,9.0
1923-04-09,8.0
1923-04-10,8.0
1923-04-11,7.0
1923-04-12,6.0
1923-04-13,7.0
1923-04-14,7.0
1923-04-15,7.0
1923-04-16,7.0
1923-04-17,8.0
1923-04-18,7.0
1923-04-19,7.0
1923-04-20,9.0
1923-04-21,6.0
1923-04-22,6.0
1923-04-23,6.0
1923-04-24,10.0
1923-04-25,10.0
1923-04-26,7.0
1923-04-27,7.0
1923-04-28,14.0
1923-04-29,15.0
1923-04-30,13.0
1923-05-01,8.0
1923-05-02,12.0
1923-05-03,10.0
1923-05-04,8.0
1923-05-05,7.0
1923-05-06,6.0
1923-05-07,6.0
1923-05-08,7.0
1923-05-09,7.0
1923-05-10,9.0
1923-05-11,6.0
1923-05-12,8.0
1923-05-13,9.0
1923-05-14,14.0
1923-05-15,13.0
1923-05-16,12.0
1923-05-17,13.0
1923-05-18,13.0
1923-05-19,14.0
1923-05-20,19.0
1923-05-21,771.0
1923-05-22,380.0
1923-05-23,28.0
1923-05-24,20.0
1923-05-25,17.0
1923-05-26,18.0
1923-05-27,21.0
1923-05-28,23.0
1923-05-29,42.0
1923-05-30,60.0
1923-05-31,20.0
1923-06-01,14.0
1923-06-02,10.0
1923-06-03,12.0
1923-06-04,13.0
1923-06-05,16.0
1923-06-06,15.0
1923-06-07,40.0
1923-06-08,1350.0
1923-06-09,1940.0
1923-06-10,536.0
1923-06-11,431.0
1923-06-12,313.0
1923-06-13,271.0
1923-06-14,220.0
1923-06-15,136.0
1923-06-16,1230.0
1923-06-17,5650.0
1923-06-18,2690.0
1923-06-19,2410.0
1923-06-20,2150.0
1923-06-21,4200.0
1923-06-22,2130.0
1923-06-23,1500.0
1923-06-24,1140.0
1923-06-25,928.0
1923-06-26,841.0
1923-06-27,571.0
1923-06-28,432.0
1923-06-29,356.0
1923-06-30,92.0
1923-07-01,18.0
1923-07-02,18.0
1923-07-03,21.0
1923-07-04,996.0
1923-07-05,356.0
1923-07-06,180.0
1923-07-07,77.0
1923-07-08,42.0
1923-07-09,42.0
1923-07-10,27.0
1923-07-11,2060.0
1923-07-12,718.0
1923-07-13,2100.0
1923-07-14,612.0
1923-07-15,1040.0
1923-07-16,664.0
1923-07-17,2420.0
1923-07-18,648.0
1923-07-19,1740.0
1923-07-20,761.0
1923-07-21,1140.0
1923-07-22,339.0
1923-07-23,418.0
1923-07-24,266.0
1923-07-25,118.0
1923-07-26,170.0
1923-07-27,5750.0
1923-07-28,1380.0
1923-07-29,978.0
1923-07-30,387.0
1923-07-31,157.0
1923-08-01,860.0
1923-08-02,238.0
1923-08-03,774.0
1923-08-04,489.0
1923-08-05,1900.0
1923-08-06,3060.0
1923-08-07,4220.0
1923-08-08,3940.0
1923-08-09,1920.0
1923-08-10,1460.0
1923-08-11,454.0
1923-08-12,398.0
1923-08-13,6370.0
1923-08-14,638.0
1923-08-15,526.0
1923-08-16,1300.0
1923-08-17,6680.0
1923-08-18,6840.0
1923-08-19,4260.0
1923-08-20,3270.0
1923-08-21,2320.0
1923-08-22,3950.0
1923-08-23,12700.0
1923-08-24,7520.0
1923-08-25,3270.0
1923-08-26,786.0
1923-08-27,638.0
1923-08-28,970.0
1923-08-29,1050.0
1923-08-30,446.0
1923-08-31,383.0
1923-09-01,302.0
1923-09-02,327.0
1923-09-03,489.0
1923-09-04,238.0
1923-09-05,369.0
1923-09-06,249.0
1923-09-07,199.0
1923-09-08,761.0
1923-09-09,369.0
1923-09-10,254.0
1923-09-11,284.0
1923-09-12,627.0
1923-09-13,348.0
1923-09-14,302.0
1923-09-15,390.0
1923-09-16,1320.0
1923-09-17,1360.0
1923-09-18,1910.0
1923-09-19,3270.0
1923-09-20,1010.0
1923-09-21,517.0
1923-09-22,398.0
1923-09-23,290.0
1923-09-24,238.0
1923-09-25,226.0
1923-09-26,296.0
1923-09-27,226.0
1923-09-28,204.0
1923-09-29,179.0
1923-09-30,141.0
1923-10-01,174.0
1923-10-02,116.0
1923-10-03,395.0
1923-10-04,296.0
1923-10-05,1950.0
1923-10-06,1960.0
1923-10-07,1700.0
1923-10-08,266.0
1923-10-09,506.0
1923-10-10,4460.0
1923-10-11,1710.0
1923-10-12,526.0
1923-10-13,585.0
1923-10-14,898.0
1923-10-15,823.0
1923-10-16,751.0
1923-10-17,811.0
1923-10-18,606.0
1923-10-19,454.0
1923-10-20,390.0
1923-10-21,383.0
1923-10-22,390.0
1923-10-23,308.0
1923-10-24,302.0
1923-10-25,526.0
1923-10-26,898.0
1923-10-27,659.0
1923-10-28,555.0
1923-10-29,545.0
1923-10-30,462.0
1923-10-31,454.0
1923-11-01,406.0
1923-11-02,376.0
1923-11-03,369.0
1923-11-04,398.0
1923-11-05,430.0
1923-11-06,369.0
1923-11-07,302.0
1923-11-08,278.0
1923-11-09,272.0
1923-11-10,308.0
1923-11-11,296.0
1923-11-12,169.0
1923-11-13,159.0
1923-11-14,272.0
1923-11-15,243.0
1923-11-16,232.0
1923-11-17,210.0
1923-11-18,226.0
1923-11-19,221.0
1923-11-20,194.0
1923-11-21,221.0
1923-11-22,129.0
1923-11-23,129.0
1923-11-24,88.0
1923-11-25,92.0
1923-11-26,129.0
1923-11-27,109.0
1923-11-28,102.0
1923-11-29,112.0
1923-11-30,72.0
1923-12-01,70.0
1923-12-02,92.0
1923-12-03,95.0
1923-12-04,105.0
1923-12-05,95.0
1923-12-06,129.0
1923-12-07,116.0
1923-12-08,95.0
1923-12-09,112.0
1923-12-10,154.0
1923-12-11,226.0
1923-12-12,179.0
1923-12-13,141.0
1923-12-14,150.0
1923-12-15,146.0
1923-12-16,137.0
1923-12-17,150.0
1923-12-18,146.0
1923-12-19,46.0
1923-12-20,58.0
1923-12-21,58.0
1923-12-22,58.0
1923-12-23,61.0
1923-12-24,53.0
1923-12-25,56.0
1923-12-26,67.0
1923-12-27,58.0
1923-12-28,78.0
1923-12-29,75.0
1923-12-30,75.0
1923-12-31,75.0
1924-01-01,75.0
1924-01-02,72.0
1924-01-03,57.0
1924-01-04,100.0
1924-01-05,99.0
1924-01-06,64.0
1924-01-07,50.0
1924-01-08,53.0
1924-01-09,50.0
1924-01-10,80.0
1924-01-11,75.0
1924-01-12,83.0
1924-01-13,112.0
1924-01-14,112.0
1924-01-15,108.0
1924-01-16,94.0
1924-01-17,94.0
1924-01-18,75.0
1924-01-19,50.0
1924-01-20,53.0
1924-01-21,50.0
1924-01-22,86.0
1924-01-23,72.0
1924-01-24,72.0
1924-01-25,72.0
1924-01-26,53.0
1924-01-27,112.0
1924-01-28,140.0
1924-01-29,210.0
1924-01-30,258.0
1924-01-31,258.0
1924-02-01,290.0
1924-02-02,298.0
1924-02-03,140.0
1924-02-04,99.0
1924-02-05,104.0
1924-02-06,258.0
1924-02-07,190.0
1924-02-08,168.0
1924-02-09,117.0
1924-02-10,168.0
1924-02-11,146.0
1924-02-12,146.0
1924-02-13,204.0
1924-02-14,179.0
1924-02-15,179.0
1924-02-16,258.0
1924-02-17,306.0
1924-02-18,298.0
1924-02-19,204.0
1924-02-20,224.0
1924-02-21,231.0
1924-02-22,238.0
1924-02-23,190.0
1924-02-24,217.0
1924-02-25,224.0
1924-02-26,190.0
1924-02-27,179.0
1924-02-28,90.0
1924-02-29,86.0
1924-03-01,86.0
1924-03-02,90.0
1924-03-03,57.0
1924-03-04,48.0
1924-03-05,21.0
1924-03-06,25.0
1924-03-07,21.0
1924-03-08,25.0
1924-03-09,30.0
1924-03-10,60.0
1924-03-11,36.0
1924-03-12,15.0
1924-03-13,9.0
1924-03-14,23.0
1924-03-15,25.0
1924-03-16,25.0
1924-03-17,35.0
1924-03-18,117.0
1924-03-19,68.0
1924-03-20,68.0
1924-03-21,94.0
1924-03-22,135.0
1924-03-23,135.0
1924-03-24,99.0
1924-03-25,68.0
1924-03-26,47.0
1924-03-27,72.0
1924-03-28,274.0
1924-03-29,481.0
1924-03-30,274.0
1924-03-31,217.0
1924-04-01,210.0
1924-04-02,179.0
1924-04-03,217.0
1924-04-04,217.0
1924-04-05,224.0
1924-04-06,300.0
1924-04-07,532.0
1924-04-08,338.0
1924-04-09,461.0
1924-04-10,450.0
1924-04-11,481.0
1924-04-12,491.0
1924-04-13,481.0
1924-04-14,491.0
1924-04-15,356.0
1924-04-16,290.0
1924-04-17,356.0
1924-04-18,402.0
1924-04-19,210.0
1924-04-20,224.0
1924-04-21,179.0
1924-04-22,174.0
1924-04-23,130.0
1924-04-24,108.0
1924-04-25,94.0
1924-04-26,90.0
1924-04-27,184.0
1924-04-28,190.0
1924-04-29,135.0
1924-04-30,99.0
1924-05-01,72.0
1924-05-02,42.0
1924-05-03,60.0
1924-05-04,64.0
1924-05-05,64.0
1924-05-06,57.0
1924-05-07,45.0
1924-05-08,47.0
1924-05-09,50.0
1924-05-10,28.0
1924-05-11,28.0
1924-05-12,28.0
1924-05-13,45.0
1924-05-14,21.0
1924-05-15,11.0
1924-05-16,15.0
1924-05-17,21.0
1924-05-18,23.0
1924-05-19,50.0
1924-05-20,79.0
1924-05-21,384.0
1924-05-22,86.0
1924-05-23,25.0
1924-05-24,72.0
1924-05-25,90.0
1924-05-26,94.0
1924-05-27,86.0
1924-05-28,108.0
1924-05-29,112.0
1924-05-30,146.0
1924-05-31,117.0
1924-06-01,94.0
1924-06-02,122.0
1924-06-03,75.0
1924-06-04,36.0
1924-06-05,19.0
1924-06-06,23.0
1924-06-07,25.0
1924-06-08,4.0
1924-06-09,7.0
1924-06-10,9.0
1924-06-11,11.0
1924-06-12,11.0
1924-06-13,15.0
1924-06-14,15.0
1924-06-15,11.0
1924-06-16,33.0
1924-06-17,31.0
1924-06-18,15.0
1924-06-19,17.0
1924-06-20,4.0
1924-06-21,4.0
1924-06-22,4.0
1924-06-23,5.0
1924-06-24,19.0
1924-06-25,13.0
1924-06-26,9.0
1924-06-27,9.0
1924-06-28,9.0
1924-06-29,9.0
1924-06-30,28.0
1924-07-01,1.0
1924-07-02,3.0
1924-07-03,3.0
1924-07-04,4.0
1924-07-05,28.0
1924-07-06,35.0
1924-07-07,19.0
1924-07-08,16.0
1924-07-09,12.0
1924-07-10,13.0
1924-07-11,20.0
1924-07-12,119.0
1924-07-13,130.0
1924-07-14,62.0
1924-07-15,336.0
1924-07-16,356.0
1924-07-17,232.0
1924-07-18,62.0
1924-07-19,28.0
1924-07-20,12.0
1924-07-21,3.0
1924-07-22,3.0
1924-07-23,2.0
1924-07-24,6.0
1924-07-25,4.0
1924-07-26,3.0
1924-07-27,3.0
1924-07-28,3.0
1924-07-29,3.0
1924-07-30,1.0
1924-07-31,0.0
1924-08-01,2.0
1924-08-02,2.0
1924-08-03,7.0
1924-08-04,19.0
1924-08-05,34.0
1924-08-06,33.0
1924-08-07,12.0
1924-08-08,5.0
1924-08-09,3.0
1924-08-10,3.0
1924-08-11,39.0
1924-08-12,544.0
1924-08-13,748.0
1924-08-14,145.0
1924-08-15,187.0
1924-08-16,217.0
1924-08-17,115.0
1924-08-18,62.0
1924-08-19,22.0
1924-08-20,10.0
1924-08-21,6.0
1924-08-22,6.0
1924-08-23,6.0
1924-08-24,7.0
1924-08-25,9.0
1924-08-26,6.0
1924-08-27,3.0
1924-08-28,3.0
1924-08-29,2.0
1924-08-30,1.0
1924-08-31,1.0
1924-09-01,1.0
1924-09-02,1.0
1924-09-03,1.0
1924-09-04,1.0
1924-09-05,1.0
1924-09-06,1.0
1924-09-07,1.0
1924-09-08,1.0
1924-09-09,1.0
1924-09-10,1.0
1924-09-11,1.0
1924-09-12,1.0
1924-09-13,1.0
1924-09-14,1.0
1924-09-15,1.0
1924-09-16,1.0
1924-09-17,1.0
1924-09-18,1.0
1924-09-19,1.0
1924-09-20,1.0
1924-09-21,1.0
1924-09-22,1.0
1924-09-23,1.0
1924-09-24,1.0
1924-09-25,1.0
1924-09-26,1.0
1924-09-27,1.0
1924-09-28,1.0
1924-09-29,1.0
1924-09-30,1.0
1924-10-01,1.0
1924-10-02,2.0
1924-10-03,1.0
1924-10-04,1.0
1924-10-05,1.0
1924-10-06,1.0
1924-10-07,1.0
1924-10-08,1.0
1924-10-09,1.0
1924-10-10,1.0
1924-10-11,1.0
1924-10-12,2.0
1924-10-13,2.0
1924-10-14,2.0
1924-10-15,7.0
1924-10-16,7.0
1924-10-17,3.0
1924-10-18,3.0
1924-10-19,3.0
1924-10-20,6.0
1924-10-21,10.0
1924-10-22,9.0
1924-10-23,4.0
1924-10-24,4.0
1924-10-25,6.0
1924-10-26,7.0
1924-10-27,5.0
1924-10-28,5.0
1924-10-29,7.0
1924-10-30,11.0
1924-10-31,20.0
1924-11-01,7.0
1924-11-02,9.0
1924-11-03,13.0
1924-11-04,19.0
1924-11-05,18.0
1924-11-06,13.0
1924-11-07,16.0
1924-11-08,15.0
1924-11-09,22.0
1924-11-10,27.0
1924-11-11,28.0
1924-11-12,20.0
1924-11-13,20.0
1924-11-14,22.0
1924-11-15,25.0
1924-11-16,22.0
1924-11-17,22.0
1924-11-18,19.0
1924-11-19,16.0
1924-11-20,15.0
1924-11-21,13.0
1924-11-22,18.0
1924-11-23,19.0
1924-11-24,20.0
1924-11-25,24.0
1924-11-26,35.0
1924-11-27,31.0
1924-11-28,24.0
1924-11-29,28.0
1924-11-30,20.0
1924-12-01,20.0
1924-12-02,25.0
1924-12-03,33.0
1924-12-04,25.0
1924-12-05,20.0
1924-12-06,23.0
1924-12-07,15.0
1924-12-08,16.0
1924-12-09,15.0
1924-12-10,15.0
1924-12-11,15.0
1924-12-12,20.0
1924-12-13,25.0
1924-12-14,22.0
1924-12-15,30.0
1924-12-16,27.0
1924-12-17,15.0
1924-12-18,10.0
1924-12-19,10.0
1924-12-20,7.0
1924-12-21,8.0
1924-12-22,10.0
1924-12-23,10.0
1924-12-24,10.0
1924-12-25,10.0
1924-12-26,10.0
1924-12-27,10.0
1924-12-28,10.0
1924-12-29,10.0
1924-12-30,10.0
1924-12-31,10.0
1925-01-01,10.0
1925-01-02,10.0
1925-01-03,10.0
1925-01-04,10.0
1925-01-05,10.0
1925-01-06,10.0
1925-01-07,10.0
1925-01-08,10.0
1925-01-09,10.0
1925-01-10,10.0
1925-01-11,11.0
1925-01-12,11.0
1925-01-13,11.0
1925-01-14,11.0
1925-01-15,11.0
1925-01-16,11.0
1925-01-17,11.0
1925-01-18,11.0
1925-01-19,11.0
1925-01-20,11.0
1925-01-21,11.0
1925-01-22,11.0
1925-01-23,11.0
1925-01-24,11.0
1925-01-25,11.0
1925-01-26,11.0
1925-01-27,11.0
1925-01-28,11.0
1925-01-29,11.0
1925-01-30,12.0
1925-01-31,15.0
1925-02-01,20.0
1925-02-02,20.0
1925-02-03,20.0
1925-02-04,20.0
1925-02-05,25.0
1925-02-06,30.0
1925-02-07,35.0
1925-02-08,45.0
1925-02-09,50.0
1925-02-10,50.0
1925-02-11,50.0
1925-02-12,50.0
1925-02-13,50.0
1925-02-14,40.0
1925-02-15,30.0
1925-02-16,20.0
1925-02-17,20.0
1925-02-18,42.0
1925-02-19,40.0
1925-02-20,45.0
1925-02-21,47.0
1925-02-22,47.0
1925-02-23,47.0
1925-02-24,40.0
1925-02-25,38.0
1925-02-26,38.0
1925-02-27,35.0
1925-02-28,29.0
1925-03-01,26.0
1925-03-02,23.0
1925-03-03,26.0
1925-03-04,24.0
1925-03-05,23.0
1925-03-06,22.0
1925-03-07,20.0
1925-03-08,20.0
1925-03-09,17.0
1925-03-10,16.0
1925-03-11,12.0
1925-03-12,16.0
1925-03-13,23.0
1925-03-14,29.0
1925-03-15,42.0
1925-03-16,52.0
1925-03-17,60.0
1925-03-18,50.0
1925-03-19,38.0
1925-03-20,22.0
1925-03-21,10.0
1925-03-22,7.0
1925-03-23,5.0
1925-03-24,4.0
1925-03-25,4.0
1925-03-26,3.0
1925-03-27,3.0
1925-03-28,3.0
1925-03-29,2.0
1925-03-30,1.0
1925-03-31,1.0
1925-04-01,1.0
1925-04-02,1.0
1925-04-03,2.0
1925-04-04,12.0
1925-04-05,35.0
1925-04-06,22.0
1925-04-07,13.0
1925-04-08,7.0
1925-04-09,4.0
1925-04-10,3.0
1925-04-11,2.0
1925-04-12,1.0
1925-04-13,1.0
1925-04-14,1.0
1925-04-15,1.0
1925-04-16,1.0
1925-04-17,1.0
1925-04-18,0.0
1925-04-19,0.0
1925-04-20,0.0
1925-04-21,0.0
1925-04-22,0.0
1925-04-23,1.0
1925-04-24,1.0
1925-04-25,2.0
1925-04-26,2.0
1925-04-27,2.0
1925-04-28,2.0
1925-04-29,2.0
1925-04-30,2.0
1925-05-01,3.0
1925-05-02,3.0
1925-05-03,2.0
1925-05-04,2.0
1925-05-05,2.0
1925-05-06,2.0
1925-05-07,2.0
1925-05-08,2.0
1925-05-09,563.0
1925-05-10,125.0
1925-05-11,134.0
1925-05-12,45.0
1925-05-13,8.0
1925-05-14,3.0
1925-05-15,3.0
1925-05-16,2.0
1925-05-17,2.0
1925-05-18,5.0
1925-05-19,6.0
1925-05-20,4.0
1925-05-21,0.0
1925-05-22,0.0
1925-05-23,0.0
1925-05-24,1.0
1925-05-25,3.0
1925-05-26,6.0
1925-05-27,11.0
1925-05-28,147.0
1925-05-29,56.0
1925-05-30,12.0
1925-05-31,4.0
1925-06-01,4.0
1925-06-02,1.0
1925-06-03,2.0
1925-06-04,0.0
1925-06-05,0.0
1925-06-06,114.0
1925-06-07,1510.0
1925-06-08,98.0
1925-06-09,65.0
1925-06-10,65.0
1925-06-11,28.0
1925-06-12,16.0
1925-06-13,10.0
1925-06-14,4.0
1925-06-15,2.0
1925-06-16,2.0
1925-06-17,1.0
1925-06-18,1.0
1925-06-19,1.0
1925-06-20,1.0
1925-06-21,0.0
1925-06-22,0.0
1925-06-23,1.0
1925-06-24,1.0
1925-06-25,1.0
1925-06-26,1.0
1925-06-27,1.0
1925-06-28,1.0
1925-06-29,1.0
1925-06-30,1.0
1925-07-01,1.0
1925-07-02,1.0
1925-07-03,1.0
1925-07-04,529.0
1925-07-05,98.0
1925-07-06,35.0
1925-07-07,12.0
1925-07-08,4.0
1925-07-09,8.0
1925-07-10,460.0
1925-07-11,246.0
1925-07-12,126.0
1925-07-13,102.0
1925-07-14,46.0
1925-07-15,28.0
1925-07-16,11.0
1925-07-17,8.0
1925-07-18,4.0
1925-07-19,3.0
1925-07-20,63.0
1925-07-21,4150.0
1925-07-22,1340.0
1925-07-23,3300.0
1925-07-24,3630.0
1925-07-25,1770.0
1925-07-26,754.0
1925-07-27,754.0
1925-07-28,1130.0
1925-07-29,1170.0
1925-07-30,1900.0
1925-07-31,1360.0
1925-08-01,499.0
1925-08-02,627.0
1925-08-03,774.0
1925-08-04,685.0
1925-08-05,3950.0
1925-08-06,1260.0
1925-08-07,571.0
1925-08-08,209.0
1925-08-09,171.0
1925-08-10,129.0
1925-08-11,224.0
1925-08-12,144.0
1925-08-13,1890.0
1925-08-14,310.0
1925-08-15,204.0
1925-08-16,132.0
1925-08-17,52.0
1925-08-18,36.0
1925-08-19,150.0
1925-08-20,65.0
1925-08-21,23.0
1925-08-22,310.0
1925-08-23,125.0
1925-08-24,42.0
1925-08-25,8.0
1925-08-26,7.0
1925-08-27,2.0
1925-08-28,1.0
1925-08-29,9.0
1925-08-30,9.0
1925-08-31,2.0
1925-09-01,2.0
1925-09-02,2.0
1925-09-03,2.0
1925-09-04,2.0
1925-09-05,2.0
1925-09-06,2.0
1925-09-07,2.0
1925-09-08,2.0
1925-09-09,2.0
1925-09-10,2.0
1925-09-11,121.0
1925-09-12,148.0
1925-09-13,402.0
1925-09-14,310.0
1925-09-15,256.0
1925-09-16,136.0
1925-09-17,80.0
1925-09-18,42.0
1925-09-19,8.0
1925-09-20,2.0
1925-09-21,1.0
1925-09-22,1.0
1925-09-23,3.0
1925-09-24,5.0
1925-09-25,3.0
1925-09-26,3.0
1925-09-27,2.0
1925-09-28,2.0
1925-09-29,2.0
1925-09-30,3.0
1925-10-01,4.0
1925-10-02,4.0
1925-10-03,7.0
1925-10-04,10.0
1925-10-05,2.0
1925-10-06,2.0
1925-10-07,2.0
1925-10-08,18.0
1925-10-09,65.0
1925-10-10,54.0
1925-10-11,42.0
1925-10-12,18.0
1925-10-13,23.0
1925-10-14,32.0
1925-10-15,44.0
1925-10-16,49.0
1925-10-17,52.0
1925-10-18,52.0
1925-10-19,52.0
1925-10-20,42.0
1925-10-21,40.0
1925-10-22,34.0
1925-10-23,30.0
1925-10-24,23.0
1925-10-25,21.0
1925-10-26,28.0
1925-10-27,30.0
1925-10-28,21.0
1925-10-29,11.0
1925-10-30,17.0
1925-10-31,18.0
1925-11-01,10.0
1925-11-02,7.0
1925-11-03,8.0
1925-11-04,6.0
1925-11-05,8.0
1925-11-06,10.0
1925-11-07,38.0
1925-11-08,62.0
1925-11-09,96.0
1925-11-10,83.0
1925-11-11,67.0
1925-11-12,44.0
1925-11-13,38.0
1925-11-14,40.0
1925-11-15,30.0
1925-11-16,47.0
1925-11-17,42.0
1925-11-18,42.0
1925-11-19,28.0
1925-11-20,34.0
1925-11-21,32.0
1925-11-22,34.0
1925-11-23,36.0
1925-11-24,24.0
1925-11-25,23.0
1925-11-26,23.0
1925-11-27,30.0
1925-11-28,30.0
1925-11-29,30.0
1925-11-30,28.0
1925-12-01,23.0
1925-12-02,38.0
1925-12-03,30.0
1925-12-04,14.0
1925-12-05,9.0
1925-12-06,16.0
1925-12-07,24.0
1925-12-08,32.0
1925-12-09,52.0
1925-12-10,52.0
1925-12-11,60.0
1925-12-12,67.0
1925-12-13,54.0
1925-12-14,28.0
1925-12-15,20.0
1925-12-16,16.0
1925-12-17,52.0
1925-12-18,83.0
1925-12-19,23.0
1925-12-20,20.0
1925-12-21,20.0
1925-12-22,15.0
1925-12-23,15.0
1925-12-24,20.0
1925-12-25,20.0
1925-12-26,20.0
1925-12-27,16.0
1925-12-28,16.0
1925-12-29,16.0
1925-12-30,16.0
1925-12-31,16.0
1926-01-01,18.0
1926-01-02,18.0
1926-01-03,20.0
1926-01-04,24.0
1926-01-05,33.0
1926-01-06,26.0
1926-01-07,35.0
1926-01-08,36.0
1926-01-09,35.0
1926-01-10,22.0
1926-01-11,33.0
1926-01-12,33.0
1926-01-13,33.0
1926-01-14,59.0
1926-01-15,33.0
1926-01-16,22.0
1926-01-17,31.0
1926-01-18,45.0
1926-01-19,27.0
1926-01-20,33.0
1926-01-21,38.0
1926-01-22,26.0
1926-01-23,33.0
1926-01-24,35.0
1926-01-25,35.0
1926-01-26,33.0
1926-01-27,38.0
1926-01-28,38.0
1926-01-29,70.0
1926-01-30,57.0
1926-01-31,47.0
1926-02-01,35.0
1926-02-02,31.0
1926-02-03,35.0
1926-02-04,62.0
1926-02-05,54.0
1926-02-06,108.0
1926-02-07,105.0